Regional Weather Roundup
Issued by NWS

Home | Current Version | Previous Version | Text Only | Print | Product List | Glossary On
Versions: 1 2 3 4 5 6 7 8 9 10 11 12 13 14 15 16 17 18 19 20 21 22 23 24 25 26 27 28 29 30 31 32 33 34 35 36 37 38 39 40 41 42 43 44 45 46 47 48 49 50
000
ASUS43 KLSX 201407
RWRMO

WEATHER SUMMARY FOR MISSOURI
NATIONAL WEATHER SERVICE SPRINGFIELD MO
900 AM CDT WED AUG 20 2014

NOTE: "FAIR" INDICATES FEW OR NO CLOUDS BELOW 12,000 FEET WITH NO
       SIGNIFICANT WEATHER AND/OR OBSTRUCTIONS TO VISIBILITY.
       CURRENT SKY AND/OR WEATHER CONDITIONS ARE NOT AVAILABLE FOR
       CHILLICOTHE AND FARMINGTON.

MOZ001>031-035>038-043-044-053-054-201500-
...NORTHERN AND WESTERN MISSOURI...

CITY           SKY/WX    TMP DP  RH WIND       PRES   REMARKS
KANSAS CTY INT PTSUNNY   78  71  79 S12       29.88R
KANSAS C DTWN  SUNNY     83  69  62 SW14      29.87R
LEE`S SUMMIT   SUNNY     79  71  76 SW13      29.90R
ST JOSEPH      MOSUNNY   78  72  81 S9        29.86R
CHILLICOTHE      N/A     78  72  81 CALM      29.89R
KIRKSVILLE     CLOUDY    72  67  84 CALM      29.92R

$$
MOZ066>068-077>081-088>096-101>105-201500-
...SOUTHWEST MISSOURI...

CITY           SKY/WX    TMP DP  RH WIND       PRES   REMARKS
SPRINGFIELD    SUNNY     80  70  71 S10       29.97R
JOPLIN         SUNNY     81  69  67 S15       29.95R

$$
MOZ032>034-039>042-045>050-055>058-069>072-201500-
...CENTRAL MISSOURI...

CITY           SKY/WX    TMP DP  RH WIND       PRES   REMARKS
COLUMBIA       CLOUDY    77  73  87 SW8       29.92R
JEFFERSON CITY CLOUDY    77  72  84 CALM      29.91R
ROLLA          PTSUNNY   77  70  79 SW8       29.94R
SEDALIA        PTSUNNY   79  71  76 SW12      29.92R
WHITEMAN AFB   SUNNY     77  64  65 SW13      29.90R
OSAGE BEACH    PTSUNNY   79  70  73 SW7       29.93R

$$
MOZ051-052-059>065-201500-
...EAST CENTRAL MISSOURI...

CITY           SKY/WX    TMP DP  RH WIND       PRES   REMARKS
ST LOUIS INTL  CLOUDY    78  72  81 E6        29.94R
SPIRIT OF STL  CLOUDY    76  71  85 CALM      29.91R
ST CHARLES     CLOUDY    76  73  91 SE7       29.90F

$$
MOZ072>076-082>087-097>100-106>115-201500-
...SOUTH CENTRAL AND SOUTHEAST MISSOURI...

CITY           SKY/WX    TMP DP  RH WIND       PRES   REMARKS
CAPE GIRARDEAU MOSUNNY   78  73  84 W5        29.95R
FARMINGTON     MOSUNNY   75  70  83 SE5       29.99R
POPLAR BLUFF   SUNNY     80  72  76 SW8       29.96R
WEST PLAINS    SUNNY     80  71  74 SW8       30.00R

$$



USA.gov is the U.S. government's official web portal to all federal, state and local government web resources and services.